User: anonymous   Login
Location: Catstown
(52.4386°N, 7.2633°W)
Time: 00:16:46
(UTC+00:00)
Language:

Cosmos 1689 Rocket - Orbit

View from above orbital plane
View from above orbital plane
View from above satellite
View from above satellite

Ground track
Ground track

The orbit data is extracted from the following two-line orbital elements,

1 16111U 85090B   20336.51183806 +.00019183 +00000-0 +18018-3 0  9991
2 16111 097.4821 159.8924 0010694 016.4872 343.6734 15.67135548941165
Epoch (UTC): 01 December 2020 12:17:02
Eccentricity: 0.0010694
inclination: 97.4821°
perigee height: 360 km
apogee height: 374 km
right ascension of ascending node: 159.8924°
argument of perigee: 16.4872°
revolutions per day: 15.67135548
mean anomaly at epoch: 343.6734°
orbit number at epoch: 94116

The dashed part of the orbit path shows where the satellite is in the earth's shadow,  

DLR